Location: Bol’shiye Khurvaleti
(42.0644°N, 44.3064°E)
Time: 12:14:46
(UTC+00:00)

Daily predictions for brighter satellites

Satellite Brightness Start Highest point End
(mag) Time Altitude Azimuth Time Altitude Azimuth Time Altitude Azimuth
Resurs 1-3 3.9 17:11:19 10° S 17:15:40 73° WSW 17:20:04 10° NNW
SPOT 1/Viking Rocket 3.8 17:13:57 10° SSE 17:18:56 53° ENE 17:23:58 10° N
PSLV R/B 4.0 17:16:48 10° NNE 17:20:56 60° ESE 17:25:03 10° S
USA 186 4.4 17:26:06 10° SW 17:28:09 17° W 17:30:15 10° NW
Cosmos 1025 Rocket 3.2 17:25:11 10° SSW 17:29:27 77° W 17:33:46 10° N
Cosmos 724 4.5 17:25:16 10° SW 17:31:04 77° WNW 17:36:54 10° NNE
Cosmos 1833 Rocket 3.3 17:28:32 10° S 17:33:35 36° ESE 17:38:40 10° NE
SPOT 5 4.1 17:31:25 10° ESE 17:34:44 22° ENE 17:38:02 10° NNE
Cosmos 1452 Rocket 3.7 17:31:08 10° S 17:36:14 54° ESE 17:41:21 10° NNE
X-37B 1.3 17:38:38 10° WNW 17:41:21 43° N 17:44:03 10° E
Terra 3.5 17:38:45 10° ESE 17:42:09 20° ENE 17:45:33 10° NNE
Cosmos 1703 4.0 17:40:50 11° SSE 17:44:04 33° E 17:47:33 10° NNE
Meteor 2-5 Rocket 4.3 17:39:04 10° SSW 17:44:30 60° WNW 17:50:01 10° N
Delta 2 Rocket 3.9 17:42:07 10° SW 17:44:56 25° S 17:46:45 16° SE
ERS-1 Rocket 4.1 17:42:35 12° ESE 17:46:25 29° ENE 17:50:41 10° N
RESURS DK-1 3.2 17:42:40 10° N 17:46:33 39° ENE 17:49:37 15° ESE
Cosmos 2184 Rocket 4.4 17:41:14 10° N 17:47:09 45° ENE 17:52:20 14° SSE
Resurs 01 Rocket 2.1 17:47:05 10° S 17:51:27 62° W 17:55:53 10° NNW
Helios 1A Rocket 4.2 17:48:51 14° ESE 17:51:32 27° ENE 17:55:01 10° N
Cosmos 1455 Rocket 4.3 17:47:35 10° NNW 17:51:39 40° W 17:55:41 10° SSW
NOSS 2-1 (C) 4.4 17:50:13 10° NW 17:55:02 70° WSW 18:01:02 14° SSE
IRAS Rocket 4.2 17:51:12 10° NNE 17:56:49 75° ESE 18:02:20 10° S
CZ-4B R/B 1.8 17:56:00 10° N 17:58:49 52° WNW 18:01:38 10° SSW
Cosmos 2228 3.8 17:55:14 10° N 17:59:08 35° ENE 18:01:39 19° SE
Lacrosse 5 2.5 17:54:48 10° NW 17:59:41 47° SW 18:03:40 15° SSE
USA 267 4.2 18:00:33 10° ENE 18:05:38 24° ESE 18:10:42 10° S
Cosmos 2082 Rocket 3.1 18:03:52 17° SSE 18:07:10 28° ESE 18:11:56 10° NE
Cosmos 1271 Rocket 3.9 18:11:18 10° NNW 18:15:02 41° W 18:18:43 10° SSW
Meteor 1-21 Rocket 4.3 18:12:08 14° S 18:16:52 59° E 18:22:27 10° NNE
USA 245 3.3 18:15:25 19° SSE 18:18:26 84° WSW 18:21:57 10° NNW
H-2A R/B 4.2 18:14:52 10° N 18:18:43 29° WNW 18:22:35 10° SW
Cosmos 1536 Rocket 3.8 18:14:55 10° SSW 18:19:12 68° W 18:23:33 10° N
ARIANE 5 R/B 3.6 18:20:39 21° ESE 18:22:47 33° ENE 18:26:45 10° N
CARTOSAT-1 4.0 18:19:39 15° S 18:23:04 58° W 18:27:21 10° NNW
Cosmos 1455 3.8 18:21:11 10° NNW 18:24:36 32° W 18:28:01 10° SSW
Cosmos 1741 Rocket 4.0 18:20:47 10° NNW 18:26:08 84° WSW 18:29:36 22° SSE
Cosmos 1606 Rocket 4.0 18:23:05 10° N 18:27:16 46° ENE 18:29:09 28° SE
SPOT 3 Rocket 3.8 18:24:53 17° S 18:28:57 67° WSW 18:34:09 10° NNW
Cosmos 2074 Rocket 4.0 18:23:44 10° N 18:30:01 82° W 18:34:56 17° S
Ariane Rocket 4.1 18:26:20 10° SSW 18:31:05 40° W 18:35:53 10° NNW
Tiangong 3.7 18:36:55 10° SW 18:37:34 11° SW 18:37:34 11° SW
Nadezhda 1 Rocket 3.9 18:34:07 16° S 18:39:09 83° E 18:45:14 10° N
ATLAS 2AS CENTAUR R/B 4.0 18:37:44 10° NW 18:43:36 30° WSW 18:48:29 13° SSW
Cosmos 1295 Rocket 4.4 18:42:34 10° N 18:48:50 88° W 18:52:36 25° S
Meteor 2-1 Rocket 4.1 18:44:24 10° N 18:49:57 87° E 18:52:54 29° S
Cosmos 1726 Rocket 3.6 18:45:46 10° N 18:50:04 63° E 18:51:30 39° SE
Cosmos 1892 3.4 18:52:28 35° E 18:52:39 35° E 18:56:07 10° NNE
SL-16 R/B 4.2 18:50:11 10° N 18:53:58 18° NE 18:57:42 10° E
Cosmos 1980 Rocket 2.5 18:49:08 10° NNW 18:54:45 57° ENE 18:57:22 31° SE
Cosmos 1697 Rocket 2.7 18:49:25 10° NNW 18:55:02 74° WSW 18:57:48 31° S
Cosmos 2369 3.8 18:52:20 10° NNW 18:58:05 68° ENE 19:00:39 33° SE
COSMOS 2406 3.4 18:54:55 10° SSW 19:00:40 77° WNW 19:06:28 10° NNE
Cosmos 2154 Rocket 4.2 18:55:20 10° NNW 19:01:29 67° W 19:05:23 23° S
Spot 2 Rocket 4.1 18:58:36 23° SSW 19:01:32 50° W 19:06:31 10° NNW
SL-8 R/B 3.7 18:57:09 10° WNW 19:01:56 68° SSW 19:03:27 42° SE
ATLAS 5 CENTAUR R/B 2.0 19:06:38 35° E 19:06:38 35° E 19:09:34 10° NE
In-Cosmos 22 Rocket 4.5 19:06:54 36° SE 19:08:36 48° E 19:13:50 10° NNE
TIMED 4.4 19:08:25 46° S 19:09:35 71° ESE 19:13:56 10° NNE
CZ-2C R/B 4.4 19:06:15 10° N 19:10:40 51° WNW 19:13:44 18° SW
SPOT 5 3.8 19:10:32 22° SW 19:12:38 34° W 19:16:36 10° NNW
X-37B 1.8 19:14:08 10° WNW 19:15:49 32° W 19:15:49 32° W
Cosmos 1833 Rocket 4.3 19:12:26 10° WSW 19:17:29 34° WNW 19:22:36 10° N
Terra 2.5 19:17:35 30° SSW 19:19:32 47° W 19:24:09 10° NNW
SL-8 Rocket 4.0 19:15:10 10° N 19:21:23 69° E 19:23:45 39° SSE
Cosmos 2084 Rocket 3.3 19:19:17 10° NW 19:23:12 65° WSW 19:23:35 60° SSW
Cosmos 1869 4.0 19:20:32 10° N 19:24:11 37° ENE 19:24:16 37° E
RESURS DK-1 4.4 19:21:23 10° WNW 19:24:14 18° WSW 19:25:28 16° SW
ERS-1 Rocket 4.2 19:22:34 22° SW 19:25:04 34° W 19:29:39 10° NNW
ASTEX 1 3.3 19:20:20 10° N 19:25:22 82° E 19:26:50 47° S
ALOS 2 4.5 19:25:01 17° E 19:26:01 18° ENE 19:29:01 10° NNE
Cosmos 1892 Rocket 4.2 19:27:06 31° SW 19:28:53 51° W 19:33:10 10° N
Cosmos 2322 Rocket 3.9 19:25:19 10° N 19:29:48 23° NE 19:32:50 16° E
Meteor 1-11 4.5 19:33:24 29° SSW 19:36:14 65° WNW 19:41:48 10° N
Cosmos 2058 Rocket 3.2 19:32:50 10° NNW 19:37:14 68° W 19:38:03 54° SSW
Cosmos 1825 2.1 19:40:26 72° NE 19:40:26 72° NE 19:43:56 10° N
Cosmos 2366 rocket 4.0 19:34:03 10° N 19:40:26 80° E 19:42:39 44° SSE
Cosmos 1626 Rocket 3.4 19:40:34 66° ESE 19:40:47 68° E 19:45:06 10° NNE
Cosmos 2278 3.7 19:35:06 10° NNW 19:40:51 78° ENE 19:42:30 48° SE
Cosmos 1408 3.6 19:42:17 35° W 19:42:38 36° WNW 19:45:52 10° N
Cosmos 2218 Rocket 4.0 19:37:22 10° N 19:43:49 85° E 19:46:03 44° SSE
Cosmos 968 Rocket 3.9 19:40:15 10° NNW 19:45:19 52° WSW 19:46:37 41° SSW
USA 267 3.2 19:42:34 10° NE 19:49:10 89° SSE 19:55:43 10° SW
Cosmos 2082 Rocket 3.2 19:45:37 10° SW 19:51:00 43° WNW 19:56:27 10° NNE
Cosmos 1867 3.7 19:49:29 10° NW 19:54:53 62° WSW 19:55:51 53° SSW
SJ 16-02 2.6 19:53:55 10° N 19:57:51 30° ENE 19:58:26 29° E
USA 276 4.0 19:56:33 10° NW 19:59:12 26° NNE 19:59:13 26° NNE
ARIANE 5 R/B 4.3 19:58:11 21° WSW 19:59:16 23° W 20:02:50 10° NW
Cosmos 1959 Rocket 4.4 19:53:14 10° N 19:59:20 76° W 20:01:14 46° S
GP-B 4.1 20:01:03 10° NNW 20:05:11 38° W 20:06:09 34° WSW
Cosmos 2360 Rocket 3.7 20:01:04 10° N 20:05:55 28° NE 20:08:32 20° E
H-2A R/B 4.0 20:04:31 10° NNE 20:08:08 48° ENE 20:08:08 48° ENE
Spot 4 3.7 20:09:26 72° SE 20:09:54 82° ENE 20:14:43 10° NNW
Cosmos 2058 4.0 20:13:53 35° ENE 20:13:53 35° ENE 20:17:08 10° NNE
Cosmos 1606 3.5 20:15:21 10° N 20:18:32 43° NE 20:18:32 43° NE
USA 234 3.7 20:17:23 20° ESE 20:21:58 59° NNE 20:28:22 10° NW
Cosmos 1758 Rocket 3.6 20:31:29 68° WNW 20:31:29 68° WNW 20:35:49 10° N
Cosmos 1821 Rocket 3.9 20:29:09 10° N 20:35:23 80° W 20:36:45 56° SSW
Cosmos 1633 4.0 20:38:23 32° NW 20:38:23 32° NW 20:40:57 10° N
Cosmos 1980 Rocket 3.8 20:34:10 10° NW 20:38:15 21° W 20:39:07 20° WSW
SL-16 R/B 2.0 20:33:04 10° NNW 20:38:46 81° WSW 20:39:33 66° S
Cosmos 2219 Rocket 4.0 20:38:25 10° N 20:43:03 25° NE 20:46:28 15° E
Cosmos 1812 Rocket 4.2 20:40:53 10° NNW 20:45:00 45° W 20:45:00 45° W
SL-4 R/B 3.3 20:47:59 30° NE 20:47:59 30° NE 20:50:00 10° NE
ATLAS 5 CENTAUR R/B 3.8 20:48:01 11° W 20:50:34 20° NW 20:53:40 10° N
Nadezhda 3 Rocket 4.1 20:51:40 48° SW 20:53:14 65° W 20:59:22 10° N
Cosmos-2242 3.8 20:50:46 10° NNW 20:54:24 42° WNW 20:54:24 42° WNW
ADEOS Rocket 3.6 20:58:46 47° SSW 21:00:55 65° W 21:08:36 10° NNW
ALOS 2 3.3 21:02:25 42° W 21:02:25 42° W 21:06:13 10° NNW
ERS-2 3.1 21:00:40 10° N 21:03:18 46° N 21:03:18 46° N
NOSS 3-2 (A) 4.4 21:07:34 28° ESE 21:07:34 28° ESE 21:12:14 10° NE
Cosmos 972 Rocket 4.1 21:04:47 10° NNW 21:10:03 76° ENE 21:10:57 62° SE
BREEZE-M DEB (TANK) 4.4 20:57:30 10° WNW 21:10:08 64° NNE 21:12:43 23° E
Cosmos 2322 Rocket 2.3 21:08:40 10° NNW 21:14:14 58° WSW 21:14:37 57° SW
Cosmos 1933 4.4 21:17:11 10° N 21:20:41 38° ENE 21:20:41 38° ENE
Cosmos 1953 Rocket 4.0 21:21:34 54° WNW 21:21:34 54° WNW 21:25:47 10° N
CENTAUR R/B 3.1 21:22:25 35° ESE 21:22:44 35° ESE 21:28:37 10° NE
PSLV R/B 3.8 21:20:22 10° N 21:25:06 71° WNW 21:25:16 70° W
SL-27 R/B 4.1 21:27:30 31° NNE 21:27:30 31° NNE 21:29:20 10° NNE
Cosmos 1777 Rocket 4.4 21:21:36 10° NNW 21:26:40 48° WSW 21:26:40 48° WSW
ISS -1.5 21:28:50 22° NE 21:28:50 22° NE 21:30:10 10° NE
Cosmos 2333 Rocket 2.3 21:23:40 10° NNW 21:29:27 73° ENE 21:30:54 51° SE
Gbstr 26 Del rocket 3.9 21:28:43 37° WNW 21:30:08 52° NNW 21:35:16 10° NE
SJ 16-02 3.0 21:32:39 10° NW 21:35:23 23° W 21:35:23 23° W
Cosmos 1340 Rocket 4.2 21:37:32 30° WNW 21:37:32 30° WNW 21:40:45 10° N
Cosmos 2151 3.4 21:38:26 56° ENE 21:38:26 56° ENE 21:42:24 10° NNE
Meteor 2-3 Rocket 3.6 21:38:40 65° SSE 21:39:31 81° E 21:45:07 10° NNE
COSMOS 2487 4.2 21:41:46 28° N 21:41:46 28° N 21:43:23 10° NNE
Cosmos 2227 Rocket 4.3 21:47:54 12° ESE 21:49:31 13° E 21:52:09 10° ENE
Cosmos 2360 Rocket 2.6 21:44:43 10° NW 21:50:06 46° WSW 21:50:16 46° WSW
Cosmos 2221 3.2 21:47:47 10° NNW 21:51:29 43° WNW 21:51:29 43° WNW
Cosmos 1812 3.3 21:48:25 10° N 21:51:48 51° NE 21:51:48 51° NE
Cosmos 1842 Rocket 3.8 21:49:57 10° NNW 21:54:05 57° WNW 21:54:05 57° WNW
Cosmos 2333 4.2 21:48:49 10° NNW 21:54:35 71° WSW 21:55:27 60° SSW
NOSS 3-2 (C) 4.1 21:54:08 32° SE 21:54:42 33° ESE 22:00:00 10° NE
Resurs 1-4 Rocket 3.4 21:50:59 10° NE 21:55:37 29° E 21:56:57 26° ESE
Cosmos 1862 4.3 21:58:36 38° E 21:58:36 38° E 22:02:05 10° NNE
Cosmos 1782 3.0 21:58:13 10° N 22:01:43 67° NNW 22:01:43 67° NNW
CZ-2D R/B 3.2 21:59:19 10° NNE 22:04:01 33° E 22:05:21 29° SE
USA 234 3.5 22:04:42 43° SW 22:05:04 44° SW 22:11:17 10° WNW
SL-23 DEB 4.4 22:08:13 43° N 22:08:13 43° N 22:10:53 10° NE
Cosmos 1727 Rocket 4.0 22:06:28 51° SSW 22:08:12 79° W 22:14:32 10° N
SL-16 R/B 3.8 22:04:32 13° SE 22:09:37 37° ENE 22:15:16 10° N
Cosmos 1459 Rocket 4.2 22:05:36 10° N 22:11:36 63° E 22:14:04 36° SSE
USA 238 DEB 4.0 22:11:04 40° SSE 22:12:41 48° ESE 22:19:05 10° NE
USA 238 4.0 22:11:12 40° SSE 22:12:50 48° ESE 22:19:13 10° NE
Cosmos 1000 Rocket 4.5 22:11:45 46° SSE 22:13:39 73° E 22:19:46 10° NNE
Cosmos 2237 Rocket 3.7 22:09:46 10° N 22:14:51 33° NE 22:19:53 10° ESE
COSMOS 2428 2.7 22:10:25 10° NNW 22:16:11 86° ENE 22:18:09 43° SSE
Cosmos 2297 Rocket 3.1 22:17:05 32° SE 22:18:33 37° ESE 22:23:42 10° NE
Cosmos 1763 Rocket 4.1 22:21:41 39° WSW 22:22:56 46° WNW 22:28:02 10° N
ADEOS II 3.5 22:21:27 10° NE 22:26:00 29° E 22:28:09 22° SE
SL-4 R/B 4.2 22:23:28 10° WNW 22:26:21 22° N 22:29:22 10° NE
Cosmos 2219 Rocket 2.3 22:21:47 10° NNW 22:27:19 54° WSW 22:28:08 49° SW
Cosmos 372 Rocket 4.4 22:24:42 10° NNW 22:29:54 60° ENE 22:32:34 28° SE
Cosmos 2322 3.8 22:24:27 10° NNW 22:29:59 55° WSW 22:30:54 49° SW
Cosmos 2100 Rocket 3.9 22:24:13 10° N 22:30:37 84° W 22:33:02 41° S
Cosmos 841 Rocket 3.4 22:31:13 57° SSW 22:32:20 89° ESE 22:37:32 10° NNE
Thor Agena Rocket 3.5 22:28:04 10° NNE 22:33:16 80° WNW 22:34:29 53° SSW
Cosmos 2173 Rocket 4.0 22:30:02 10° N 22:36:26 81° W 22:38:58 40° S
Cosmos 2123 Rocket 4.1 22:34:04 37° SSE 22:36:41 70° E 22:42:59 10° NNE
Cosmos 990 Rocket 4.5 22:32:16 10° NW 22:37:02 39° WSW 22:37:12 39° WSW
Cosmos 1725 Rocket 4.3 22:31:11 10° N 22:37:18 61° E 22:40:56 25° SSE
Cosmos 858 Rocket 4.4 22:36:28 10° NNW 22:41:44 88° WSW 22:43:36 41° SSE
Okean 3 Rocket 4.3 22:43:23 36° SE 22:44:45 49° E 22:49:08 10° NNE
SL-24 DEB 4.4 22:46:48 50° WSW 22:47:22 53° W 22:51:53 10° NNW
Cosmos 2016 Rocket 3.9 22:45:12 10° N 22:51:21 85° E 22:54:30 31° S
Cosmos 1184 Rocket 3.5 22:49:03 10° NNW 22:51:15 42° NNW 22:51:15 42° NNW
IDEFIX/ARIANE 42P 3.3 22:48:25 10° NNE 22:53:23 44° E 22:55:51 26° SSE
Geosat 4.1 22:54:41 45° SSW 22:55:42 53° WSW 23:00:38 10° NW
Cosmos 540 Rocket 4.4 22:55:58 29° WSW 22:57:38 37° WNW 23:02:25 10° N
NOSS 3-2 (A) 3.9 22:54:56 27° WSW 22:57:40 48° NW 23:03:48 10° NNE
Meteor 2-6 Rocket 4.4 22:57:14 10° NNW 23:03:01 59° W 23:05:11 36° SSW
ISS -1.4 23:01:42 12° WNW 23:03:56 21° NNW 23:06:36 10° NE
NPP 3.6 23:02:25 10° N 23:07:50 78° WNW 23:10:06 36° SSW
Cosmos 1802 Rocket 4.1 23:01:44 10° NNW 23:07:51 60° W 23:10:44 32° SSW
Cosmos 1864 Rocket 4.4 23:04:32 10° NNW 23:10:43 72° W 23:13:57 29° S
Cosmos 2333 Rocket 3.9 23:09:37 10° WNW 23:12:51 16° W 23:12:51 16° W
CENTAUR R/B 3.3 23:09:34 22° WSW 23:13:09 45° NW 23:19:54 10° NNE
Cosmos 1356 Rocket 3.3 23:13:41 50° SW 23:14:33 68° W 23:18:32 10° N
Cosmos 2061 Rocket 4.0 23:09:26 10° NNW 23:15:52 73° W 23:19:41 26° S
Cosmos 1980 3.6 23:11:31 10° NNW 23:17:12 79° WSW 23:21:40 17° SSE
Meteor 1-10 Rocket 4.3 23:12:20 10° NNW 23:18:10 64° W 23:21:07 29° SSW
Lacrosse 4 Rocket 3.7 23:18:46 10° N 23:22:07 24° NE 23:25:29 10° ESE
Cosmos 1151 Rocket 3.6 23:19:20 10° NNW 23:23:25 39° W 23:24:19 35° WSW
Cosmos 1340 3.5 23:20:58 10° NNW 23:24:17 32° W 23:24:20 32° W
SAR-Lupe-2 3.5 23:23:34 10° NNE 23:27:10 87° ESE 23:28:15 43° S
AQUA 3.9 23:22:32 10° N 23:27:15 63° WNW 23:29:19 32° SW
NOSS 0 Rocket 4.2 23:21:31 10° NW 23:27:22 46° WSW 23:30:34 25° SSW
Cosmos 1937 Rocket 4.4 23:24:03 10° NW 23:28:32 29° W 23:29:31 27° WSW
ATLAS CENTAUR R/B 4.0 23:28:53 10° SSE 23:31:48 16° ESE 23:34:46 10° ENE
Cosmos 1515 3.6 23:28:14 10° NNW 23:32:01 71° W 23:33:24 36° S
Cosmos 2227 Rocket 2.2 23:29:43 29° SSW 23:32:45 83° WNW 23:38:28 10° NNE
Cosmos 1328 Rocket 3.8 23:28:52 10° NNW 23:33:07 50° W 23:34:42 33° SSW
SL-16 R/B 3.3 23:28:11 10° NNW 23:33:39 46° ENE 23:39:05 10° SE
Resurs 1-4 Rocket 3.0 23:30:36 10° N 23:35:26 36° WNW 23:38:01 23° WSW
MOS 1 Rocket 4.1 23:36:00 28° SW 23:37:59 39° W 23:42:57 10° NNW
Cosmos 1400 Rocket 2.7 23:38:35 32° SSW 23:40:21 82° W 23:44:24 10° N
Cosmos 2082 4.2 23:36:53 19° S 23:40:47 52° ESE 23:46:15 10° NNE
CZ-2D R/B 3.2 23:39:25 10° N 23:43:59 31° WNW 23:46:39 20° WSW
Cosmos 2263 Rocket 3.8 23:40:17 10° SSE 23:44:59 28° ESE 23:49:40 10° NE
NOSS 3-2 (C) 4.1 23:41:34 18° WSW 23:45:20 42° NW 23:51:24 10° NNE
Cosmos 1515 Rocket 3.5 23:41:15 10° NNW 23:45:38 73° W 23:48:30 21° S
COSMOS 2455 3.0 23:43:15 10° NW 23:49:04 52° WSW 23:54:51 10° S
OAO 3 Rocket 4.0 23:49:30 25° SW 23:51:05 30° SSW 23:55:24 10° SE
SL-16 R/B 3.1 23:49:37 21° SSW 23:53:08 38° W 23:58:55 10° NNW
Sich 1 4.1 23:49:22 10° SSE 23:53:25 42° E 23:57:28 10° NNE
Meteor 1-28 Rocket 3.7 23:52:43 28° SW 23:53:57 37° W 23:57:25 10° NNW
OE (NEXTSAT) 4.1 23:52:44 29° WSW 23:54:17 83° NNW 23:57:34 10° ENE
